Find Starlink 35928

NORAD ID: 66528 Int'l Des: 2025-265 Owner: SPXS Country: US Constellation: starlink operational
LEOCIRCULAR

Live Position

Loading 3D Globe...

About Starlink 35928

Description loading...

Upcoming Passes

Passes for default location (London). Set your location on the main map for personalized predictions.

Altitude History

Loading altitude history...

Two-Line Element Set

1 66528U 25265N 26106.60288557 .00006338 00000-0 23957-3 0 9992
2 66528 43.0033 63.6532 0001621 261.2095 98.8573 15.27590380 22916
Epoch: Apr 16, 2026 • Age: 11 hours

Current Status

Altitude 487.3 km
Velocity 7.63 km/s
Sub-Earth Point 43.13°N, 84.52°W
Launch Date Nov 19, 2025
Age 0.4 years
Type internet

Technical Details

Classification Payload
Mass 575.00 kg
Dry Mass 530.00 kg
Total Mass 575.00 kg
Length 0.30 m
Diameter 4.10 m
Span 29.00 m
Shape Box + pan
Manufacturer SPXS
Bus Type Starlink V2MO
Phase Status In Orbit
Owner/State SPXS/US

Most Searched